Location: Ehrke Reservoir
(40.0279°N, 99.6641°W)
Time: 18:51:43
(UTC+00:00)

Ariane Rocket - Pass Details

Date: 20 January 2020
Orbit: 761 x 770 km, 98.7° (Epoch: 27 February)

Event Time Altitude Azimuth Distance (km) Brightness Sun altitude
Rises 01:13:24 0° 143° (SE) 3,212 6.0 -17.3°
Enters shadow 01:14:23 - 140° (SE) 2,833 5.7 -17.5°
Exits shadow 01:18:26 27° 113° (ESE) 1,451 4.0 -18.3°
Maximum altitude 01:20:26 37° 69° (ENE) 1,171 3.4 -18.6°
Drops below altitude 10° 01:25:05 10° 3° (N) 2,310 5.3 -19.5°
Sets 01:27:32 0° 355° (N) 3,242 6.2 -20.0°
